Weather History for Beverly, MA

Change the Weather History Date:

Saturday, October 6, 2012

  Actual Average Record
Temperature  
Mean Temperature 66 °F -  
Max Temperature 79 °F 62 °F 79 °F (1983)
Min Temperature 53 °F 42 °F 30 °F (2004)
Cooling Degree Days 2    
Growing Degree Days 16 (Base 50)    
Moisture  
Dew Point 55 °F    
Average Humidity 70    
Maximum Humidity 87    
Minimum Humidity 46    
Precipitation  
Precipitation 0.00 in - - ()
Sea Level Pressure  
Sea Level Pressure 29.79 in    
Wind  
Wind Speed 7 mph (SW)    
Max Wind Speed 16 mph    
Max Gust Speed 28 mph    
Visibility 9 miles    
Events Rain    
Averages and records for this station are not official NWS values.
T = Trace of Precipitation, MM = Missing Value Source: NWS Daily Summary

Daily Weather History Graph

Daily Weather History Graph

Search for Another Location

Airport:

Trip Planner

Search our weather history database for the weather conditions in past years. The results will help you decide how hot, cold, wet, or windy it might be!

Date:

Astronomy

Oct. 06, 2012 Rise Set
Actual Time 6:46 AM EDT 6:15 PM EDT
Civil Twilight 6:18 AM EDT 6:43 PM EDT
Nautical Twilight 5:46 AM EDT 7:16 PM EDT
Astronomical Twilight 5:13 AM EDT 7:49 PM EDT
Moon 10:22 PM EDT (10/6) 12:45 PM EDT (10/6)
Length of Visible Light 12h 25m
Length of Day
11h 28m
Waning Gibbous, 65% of the Moon is Illuminated
Oct 6
Waning Gibbous
Oct 8
Last Quarter
Oct 15
New
Oct 21
First Quarter
Oct 29
Full

Hourly Weather History & Observations

Time (EDT) Temp. Dew Point Humidity Pressure Visibility Wind Dir Wind Speed Gust Speed Precip Events Conditions
12:53 AM 60.1 °F 55.9 °F 86% 29.88 in 10.0 mi SSW 4.6 mph - N/A   Clear
1:53 AM 61.0 °F 55.9 °F 83% 29.88 in 10.0 mi WSW 3.5 mph - N/A   Clear
2:53 AM 60.1 °F 55.0 °F 83% 29.85 in 10.0 mi South 5.8 mph - N/A   Clear
3:53 AM 60.1 °F 55.9 °F 86% 29.84 in 10.0 mi SSW 3.5 mph - N/A   Clear
4:53 AM 61.0 °F 55.9 °F 83% 29.84 in 10.0 mi South 3.5 mph - N/A   Clear
5:53 AM 60.1 °F 55.9 °F 86% 29.82 in 7.0 mi Calm Calm - N/A   Clear
6:53 AM 59.0 °F 55.0 °F 87% 29.81 in 6.0 mi SSW 3.5 mph - N/A   Clear
7:53 AM 62.1 °F 57.9 °F 86% 29.82 in 5.0 mi South 8.1 mph - N/A   Clear
8:53 AM 66.0 °F 60.1 °F 81% 29.81 in 6.0 mi South 4.6 mph - N/A   Haze
9:53 AM 68.0 °F 60.1 °F 76% 29.81 in 7.0 mi South 4.6 mph - N/A   Clear
10:53 AM 73.9 °F 60.1 °F 62% 29.79 in 10.0 mi SSW 9.2 mph - N/A   Clear
11:53 AM 77.0 °F 59.0 °F 54% 29.76 in 10.0 mi South 11.5 mph - N/A   Clear
12:53 PM 77.0 °F 59.0 °F 54% 29.73 in 10.0 mi SSW 10.4 mph 21.9 mph N/A   Clear
1:53 PM 78.1 °F 57.0 °F 48% 29.70 in 10.0 mi SSW 15.0 mph 21.9 mph N/A   Partly Cloudy
2:53 PM 78.1 °F 55.9 °F 46% 29.68 in 10.0 mi SW 13.8 mph 24.2 mph N/A   Clear
3:53 PM 77.0 °F 55.9 °F 48% 29.67 in 10.0 mi SW 16.1 mph 27.6 mph N/A   Partly Cloudy
4:53 PM 75.0 °F 57.0 °F 53% 29.67 in 10.0 mi SSW 15.0 mph 23.0 mph N/A   Overcast
5:53 PM 71.1 °F 60.1 °F 68% 29.70 in 9.0 mi SW 12.7 mph 19.6 mph 0.00 in Rain Light Rain
6:12 PM 68.0 °F 59.0 °F 73% 29.74 in 10.0 mi NW 12.7 mph 25.3 mph 0.00 in   Overcast
6:53 PM 64.0 °F 54.0 °F 70% 29.75 in 10.0 mi West 12.7 mph 18.4 mph 0.00 in   Overcast
7:53 PM 63.0 °F 50.0 °F 63% 29.79 in 10.0 mi WNW 9.2 mph - N/A   Overcast
8:53 PM 59.0 °F 50.0 °F 72% 29.82 in 10.0 mi NNW 5.8 mph - N/A   Scattered Clouds
9:53 PM 57.9 °F 46.0 °F 65% 29.86 in 10.0 mi WNW 6.9 mph - N/A   Partly Cloudy
10:53 PM 55.9 °F 46.9 °F 72% 29.88 in 10.0 mi West 5.8 mph - N/A   Clear
11:53 PM 53.1 °F 44.1 °F 71% 29.90 in 10.0 mi WNW 4.6 mph - N/A   Clear